Вернуться в каталог

STARLINK-31589

АктивенСвязьVLEO
NORAD 59654·PAYLOAD·🇺🇸 United States

Запущен May 6, 2024 с Cape Canaveral Space Force Station

Loading…

Ближайшие Пролёты (ближайшие 24 часа)

TLE

СвежийSource: CelesTrak SupGP

Эпоха: Sep 15, 2026, 03:12 UTC

1 59654C 24084A   26258.13381944 -.00025362  00000+0 -91835-3 0  2589
2 59654  43.0026  51.7495 0001699 269.0190 252.0816 15.27600601    12

Отслеживайте STARLINK-31589 в реальном времени с AllMySat

Download on the App Store